Orange, MA

2:12 AM EST on November 18, 2017 (GMT -0500)
Orange Municipal

Weather History for KORE - February, 2013

Change the Weather History Date:

Saturday, February 2, 2013

  Actual Average Record
Temperature  
Mean Temperature 18 °F -  
Max Temperature 26 °F 31 °F 46 °F (2016)
Min Temperature 10 °F 11 °F -4 °F (2005)
Degree Days  
Heating Degree Days 47    
Moisture  
Dew Point 5 °F    
Average Humidity 52    
Maximum Humidity 78    
Minimum Humidity 41    
Precipitation  
Precipitation 0.00 in - - ()
Sea Level Pressure  
Sea Level Pressure 30.12 in    
Wind  
Wind Speed 6 mph (SW)    
Max Wind Speed 15 mph    
Max Gust Speed 21 mph    
Visibility 10 miles    
Events Snow    
Averages and records for this station are not official NWS values.
T = Trace of Precipitation, MM = Missing Value Source: NWS Daily Summary

Daily Weather History Graph

Daily Weather History Graph

Search for Another Location

Airport or City:

Trip Planner

Search our weather history database for the weather conditions in past years. The results will help you decide how hot, cold, wet, or windy it might be!

Date:

Astronomy

Feb. 02, 2013 Rise Set
Actual Time 7:01 AM EST 5:04 PM EST
Civil Twilight 6:32 AM EST 5:34 PM EST
Nautical Twilight 5:58 AM EST 6:07 PM EST
Astronomical Twilight 5:25 AM EST 6:40 PM EST
Moon No Moon Rise 10:00 AM EST (2/2)
Length of Visible Light 11h 02m
Length of Day
10h 02m
Waning Gibbous, 60% of the Moon is Illuminated
Feb 2
Waning Gibbous
Feb 3
Last Quarter
Feb 10
New
Feb 17
First Quarter
Feb 25
Full

Hourly Weather History & Observations

Time (EST) Temp. Windchill Dew Point Humidity Pressure Visibility Wind Dir Wind Speed Gust Speed Precip Events Conditions
12:52 AM 18.0 °F 8.7 °F 7.0 °F 62% 30.11 in 10.0 mi WSW 6.9 mph - N/A   Partly Cloudy
1:52 AM 18.0 °F 7.7 °F 3.9 °F 54% 30.14 in 10.0 mi West 8.1 mph 17.3 mph N/A   Clear
2:52 AM 17.1 °F 11.7 °F 3.0 °F 54% 30.15 in 10.0 mi WNW 3.5 mph - N/A   Clear
3:52 AM 16.0 °F 8.8 °F 1.0 °F 52% 30.16 in 10.0 mi WNW 4.6 mph - N/A   Clear
4:52 AM 15.1 °F 7.7 °F 1.0 °F 54% 30.19 in 10.0 mi WNW 4.6 mph - N/A   Clear
5:52 AM 12.0 °F 5.9 °F 1.9 °F 64% 30.19 in 10.0 mi SW 3.5 mph - N/A   Clear
6:52 AM 10.9 °F - 1.0 °F 64% 30.21 in 10.0 mi Calm Calm - N/A   Clear
7:52 AM 12.9 °F - 3.0 °F 65% 30.23 in 10.0 mi Calm Calm - N/A   Clear
8:52 AM 17.1 °F 7.6 °F -0.0 °F 47% 30.23 in 10.0 mi SSW 6.9 mph - N/A   Clear
9:52 AM 19.9 °F 14.9 °F 1.0 °F 44% 30.22 in 10.0 mi Variable 3.5 mph - N/A   Clear
10:52 AM 21.9 °F 17.2 °F 3.9 °F 46% 30.20 in 10.0 mi Variable 3.5 mph - N/A   Clear
11:52 AM 24.1 °F 15.2 °F 6.1 °F 46% 30.17 in 10.0 mi South 8.1 mph - N/A   Clear
12:52 PM 25.0 °F 14.8 °F 5.0 °F 43% 30.12 in 10.0 mi SSW 10.4 mph 20.7 mph N/A   Scattered Clouds
1:52 PM 26.1 °F 17.6 °F 6.1 °F 43% 30.09 in 10.0 mi South 8.1 mph 17.3 mph N/A   Mostly Cloudy
2:52 PM 26.1 °F 16.2 °F 7.0 °F 44% 30.07 in 10.0 mi South 10.4 mph 17.3 mph N/A   Overcast
3:52 PM 26.1 °F 15.0 °F 5.0 °F 41% 30.06 in 10.0 mi South 12.7 mph - N/A   Overcast
4:52 PM 26.1 °F 14.0 °F 6.1 °F 43% 30.05 in 10.0 mi South 15.0 mph 19.6 mph N/A   Overcast
5:52 PM 26.1 °F 16.2 °F 5.0 °F 41% 30.04 in 10.0 mi South 10.4 mph - N/A   Partly Cloudy
6:52 PM 25.0 °F 16.3 °F 3.9 °F 41% 30.04 in 10.0 mi SSW 8.1 mph - N/A   Scattered Clouds
8:52 PM 24.1 °F 15.2 °F 7.0 °F 48% 30.04 in 10.0 mi WSW 8.1 mph - N/A   Overcast
9:52 PM 23.0 °F 15.8 °F 10.0 °F 58% 30.05 in 10.0 mi WSW 5.8 mph - N/A   Overcast
10:52 PM 21.9 °F 13.4 °F 14.0 °F 72% 30.05 in 4.0 mi SW 6.9 mph - 0.00 in Snow Light Snow
11:52 PM 21.0 °F - 15.1 °F 78% 30.05 in 4.0 mi Calm Calm - 0.00 in Snow Light Snow